カタログに戻る

STARLINK-6285

運用中通信VLEO
NORAD 56405·PAYLOAD·🇺🇸 United States

打ち上げ May 4, 2023 から Cape Canaveral Space Force Station

Loading…

次のパス (今後24時間)

TLE

最新Source: CelesTrak SupGP

元期: Sep 14, 2026, 22:17 UTC

1 56405C 23061AH  26257.92895833 -.00017141  00000+0 -62085-3 0  2577
2 56405  43.0010 198.2736 0001537 260.7466 213.5305 15.27586749    17

AllMySatでSTARLINK-6285をリアルタイム追跡

Download on the App Store